User: anonymous   Login
Location: Unspecified
(0.0000°N, 0.0000°E)
Time: 10:16:39
(UTC+00:00)
Language:

S-NET A - Orbit

View from above orbital plane
View from above orbital plane
View from above satellite
View from above satellite

Ground track
Ground track

The orbit data is extracted from the following two-line orbital elements,

1 43188U 18014J   19107.71420172 -.00000084 +00000-0 -22544-5 0  9996
2 43188 097.7137 017.0622 0010070 206.2328 153.8385 14.96616456065865
Epoch (UTC): 17 April 2019 17:08:27
Eccentricity: 0.0010070
inclination: 97.7137°
perigee height: 570 km
apogee height: 584 km
right ascension of ascending node: 17.0622°
argument of perigee: 206.2328°
revolutions per day: 14.96616456
mean anomaly at epoch: 153.8385°
orbit number at epoch: 6586

The dashed part of the orbit path shows where the satellite is in the earth's shadow,  

DLR